Preview of NWS' New Version of Forecast
This preview is not operational and should not be used for support decisions.
Latest weather observations around

Homer, Homer Airport (PAHO)

Using English Units (Switch to International System of Units)
Date/ Time (AKST) Wind (mph) Vis. (mi) Weather Sky Cond. Temp (°F) Rel. Humidity Wind Chill (°F) Heat Index (°F) Pressure Precip. (in)
Air Dwpt 6 hour Altimeter (inHg) Sea level (inHg) 1 hr 3 hr 6 hr
Max Min
Feb 17 08:53 7 10 Cloudy OVC055 40 32     73% 35   29.78 29.78     0
Feb 17 07:53 ESE 5 10 Cloudy OVC050 37 35     92% 33   29.82 29.83 0    
Feb 17 06:53 Calm 10 Unknown Precipitation OVC040 36 33     89%     29.88 29.88 0    
Feb 17 06:10 NNE 5 7 Light Rain FEW028 OVC034 36 35     96% 32   29.89   0    
Feb 17 05:53 Calm 8 Light Rain OVC028 35 34     96%     29.9 29.91 0 0  
Feb 17 05:46 NNE 3 8 Rain OVC028 35 34     96% 32   29.91   0    
Feb 17 05:29 NE 5 10 Unknown Precipitation OVC030 37 34     89% 33   29.92   0    
Feb 17 05:17 Calm 10 Light Rain OVC028 36 34     92%     29.93   0    
Feb 17 04:53 NW 6 10 Light Rain BKN036 OVC045 35 33     92% 30   29.94 29.94 0    
Feb 17 03:53 Calm 10 Cloudy OVC043 34 32     92%     29.95 29.95      
Feb 17 02:53 Calm 10 Cloudy OVC045 36 32     85%     29.99 29.99     0
Feb 17 01:53 NNW 6 10 Cloudy OVC047 35 32     88% 30   30 30 0    
Feb 17 00:53 Calm 10 Unknown Precipitation OVC047 34 31     88%     30.02 30.02 0    
Feb 16 23:53 Calm 10 Cloudy OVC048 34 31     88%     30.04 30.04   0  
Feb 16 22:53 NE 3 10 Cloudy OVC050 35 30     82% 32   30.05 30.05      
Feb 16 21:53 NNE 6 10 Cloudy OVC055 35 31     85% 30   30.06 30.06 0    
Feb 16 20:53 NNE 3 10 Clear   34 31     88% 31   30.08 30.08 0    
Feb 16 19:53 NNE 5 6 Light Snow and Fog/Mist OVC040 34 32     92% 30   30.09 30.09 0    
Feb 16 18:53 ENE 9 3 Light Snow and Fog/Mist OVC036 34 31     88% 27   30.09 30.09 0    
Feb 16 18:24 ENE 8 4 Light Snow and Fog/Mist OVC038 34 32     92% 27   30.09   0    
Feb 16 18:14 ENE 9 2.5 Light Snow and Fog/Mist OVC032 34 32     92% 27   30.1   0    
Feb 16 18:01 ENE 9 3 Light Snow and Fog/Mist OVC029 33 32     96% 25   30.11   0    
Feb 16 17:53 ENE 8 1.25 Light Snow and Fog/Mist OVC023 33 32     96% 26   30.11 30.11 0 0  
Feb 16 17:17 NE 10 1 Light Snow and Fog/Mist VV017 33 32     96% 25   30.12   0    
Feb 16 17:00 NE 10 0.5 Snow and Fog VV010 33 31     92% 25   30.13   0    
Feb 16 16:53 NE 9 0.5 Snow and Fog VV005 33 32     96% 25   30.13 30.13 0    
Feb 16 16:00 ENE 6 0.5 Snow and Fog VV005 33 30     88% 28   30.14   0    
Feb 16 15:53 ENE 6 1.25 Light Snow and Fog/Mist VV005 34 30     85% 29   30.14 30.14 0    
Feb 16 15:30 Calm 1.25 Light Snow and Fog/Mist VV005 34 31     88%     30.15   0    
Feb 16 14:55 E 6 2 Light Snow VV009 35 30     82% 30   30.16   0    
Feb 16 14:53 E 7 3 Light Snow BKN023 OVC035 35 30     82% 29   30.16 30.16 0   0
Feb 16 14:25 ENE 6 3 Light Snow BKN025 OVC035 35 30     82% 30   30.17   0    
Feb 16 13:53 NE 6 6 Light Snow and Fog/Mist BKN030 OVC090 34 31     88% 29   30.17 30.17 0    
Feb 16 12:53 NNE 5 3 Light Snow and Fog/Mist BKN028 OVC036 33 30     88% 29   30.18 30.18 0    
Feb 16 11:53 Calm 3 Light Snow and Fog/Mist OVC050 30 28     92%     30.17 30.17 0 0  
Feb 16 10:53 Calm 8 Cloudy BKN060 OVC070 30 29     96%     30.16 30.16 0    
Feb 16 10:00 Calm 10 Cloudy FEW006 BKN060 OVC070 28 28     100%     30.16        
Feb 16 09:53 W 3 10 Cloudy BKN049 OVC065 28 28     100% 24   30.16 30.16 0    
Feb 16 09:36 Calm 10 Cloudy BKN049 OVC065 27 27     100%     30.16   0    
Feb 16 09:23 Calm 1.5 Light Snow and Fog/Mist OVC046 26 26     100%     30.15   0    
Feb 16 09:10 NNE 5 2 Light Snow and Fog/Mist OVC033 26 26     100% 20   30.14   0    
Feb 16 08:53 NE 6 1.5 Light Snow and Fog/Mist OVC018 26 25     96% 19   30.14 30.14 0   0
Feb 16 07:53 NE 9 1 Light Snow and Fog/Mist VV011 25 23     92% 16   30.14 30.14 0    
Feb 16 07:51 NE 9 1 Light Snow and Fog/Mist VV011 25 23     93% 15   30.14   0    
Feb 16 07:44 NE 10 0.75 Light Snow and Fog/Mist VV011 25 23     92% 15   30.14   0    
Feb 16 07:16 ENE 10 1 Light Snow and Fog/Mist VV011 25 23     92% 15   30.15   0    
Feb 16 06:53 ENE 10 0.75 Light Snow and Fog/Mist VV012 25 23     92% 15   30.15 30.15 0    
Feb 16 06:35 NE 7 1 Light Snow and Fog/Mist VV013 25 23     92% 17   30.15   0    
Feb 16 06:03 NE 3 0.75 Light Snow and Fog/Mist VV012 25 21     85% 21   30.15   0    
Feb 16 05:53 Calm 1 Light Snow and Fog/Mist VV013 25 22     88%     30.15 30.15 0 0  
Feb 16 05:40 E 3 1.25 Light Snow and Fog/Mist OVC015 25 21     85% 21   30.15   0    
Feb 16 05:10 Calm 1 Light Snow VV013 25 19     78%     30.14   0    
Feb 16 04:53 W 3 1.25 Light Snow OVC018 25 17     71% 21   30.13 30.13 0    
Feb 16 04:42 WSW 3 2.5 Light Snow OVC026 25 15     66% 21   30.13   0    
Feb 16 03:53 NE 9 10 Cloudy OVC038 25 14     63% 16   30.1 30.1      
Feb 16 02:53 ENE 6 10 Cloudy OVC055 25 12     57% 18   30.12 30.12     0
Feb 16 01:53 NNE 3 10 Cloudy OVC050 25 12     57% 21   30.11 30.11      
Feb 16 00:53 NNE 3 10 Cloudy OVC060 24 11     57% 20   30.1 30.1      
Feb 15 23:53 NE 6 10 Clear CLR 21 10     62% 13   30.09 30.09   0  
Feb 15 22:53 Calm 10 Clear CLR 19 9     64%     30.1 30.1 0    
Feb 15 21:53 Calm 10 Clear CLR 20 8     59%     30.07 30.08      
Feb 15 20:53 NE 6 10 Clear CLR 20 6     54% 12   30.05 30.05      
Feb 15 19:53 NE 6 10 Clear CLR 23 7     50% 16   30.04 30.04      
Feb 15 18:53 ENE 13 10 Clear CLR 23 7     50% 11   30.04 30.04      
Feb 15 17:53 ENE 6 10 Clear CLR 24 7     48% 17   30.05 30.06      
Feb 15 16:53 NE 9 10 Clear CLR 27 7     42% 18   30.03 30.03      
Feb 15 15:53 ENE 9 10 Clear CLR 27 8     44% 18   30.05 30.05      
Feb 15 14:53 ENE 11 10 Clear CLR 27 9     46% 17   30.05 30.05      
Feb 15 13:53 ENE 9 10 Clear CLR 27 7     42% 18   30.04 30.04      
Feb 15 12:53 ENE 9 10 Clear CLR 27 4     37% 18   30.04 30.04      
Feb 15 11:53 ENE 9 10 Clear CLR 26 5     40% 17   30.04 30.04      
Feb 15 10:53 NNE 5 10 Clear CLR 24 8     50% 18   30.03 30.03      
Feb 15 09:53 NE 3 10 Clear CLR 19 5     54% 14   30.02 30.02      
Feb 15 08:53 Calm 10 Clear CLR 17 3     53%     30.01 30.01      
Feb 15 07:53 WNW 6 10 Clear CLR 17 2     51% 9   30.01 30.01      
Feb 15 06:53 NNE 7 10 Clear CLR 15 5     64% 5   29.99 29.99      
Feb 15 05:53 NNW 5 10 Clear CLR 15 6     67% 8   30.02 30.02      
Feb 15 04:53 NNE 5 10 Clear CLR 14 6     70% 6   30.01 30.02      
Feb 15 03:53 ENE 6 10 Clear CLR 16 5     61% 7   30.01 30.01      
Feb 15 02:53 NNE 5 10 Clear CLR 16 3     56% 9   30.01 30.02      
Feb 15 01:53 Calm 10 Clear CLR 18 2     49%     29.99 30      
Feb 15 00:53 W 3 10 Clear CLR 20 1     43% 15   29.98 29.98      
Feb 14 23:53 NNE 9 10 Cloudy OVC120 20 2     45% 9   29.98 29.98      
Feb 14 22:53 NNE 5 10 Cloudy OVC110 21 2     43% 15   29.99 29.99      
Feb 14 21:53 NE 8 10 Cloudy OVC100 20 3     47% 10   30 30      
Feb 14 20:53 N 6 10 Clear CLR 21 1     41% 13   30 30      
Feb 14 19:53 NE 3 10 Clear CLR 21 0     39% 16   30 30.01      
Feb 14 18:53 Calm 10 Clear CLR 23 -1     34%     30.01 30.01      
Feb 14 17:53 Calm 10 Partly Cloudy SCT120 23 1     38%     30.01 30.01      
Feb 14 16:53 NE 9 10 Clear CLR 23 0     36% 13   30 30.01      
Feb 14 15:53 ENE 8 10 Clear CLR 24 0     34% 15   30.03 30.03      
Feb 14 14:53 NE 10 10 Clear CLR 26 -1     30% 16   30.08 30.09      
Feb 14 13:53 NE 10 10 Clear CLR 26 -1     30% 16   30.1 30.1      
Feb 14 12:53 ENE 7 10 Clear CLR 24 5     43% 16   30.07 30.07      
Feb 14 11:53 E 8 10 Clear CLR 24 2     38% 15   30.07 30.07      
Feb 14 10:53 ENE 14 10 Clear CLR 22 1     40% 9   30.07 30.07      
Feb 14 09:53 ENE 10 10 Clear CLR 20 1     43% 9   30.07 30.08      
May 14 16:53 W 13 10 Clear   47 31     53% 41   29.94 29.94      
May 14 07:53 SW 14 10 Clear CLR 43 37     79% 36   29.86 29.86      
May 12 05:53 3 10 Partly Cloudy SCT039 43 34     70% 41   30.11 30.11      
May 12 04:53 Calm 10 Mostly Cloudy FEW036 BKN110 43 34     70%     30.11 30.11      
Notice The following observation data may not be complete
Jun 10 11:53 ESE 9 10 Mostly Cloudy BKN055   41      %     29.8 29.8      
Notice The following observation data may not be complete
Jun 10 08:53 NW 5 10 Cloudy BKN050 OVC070   43      %     29.78 29.78      
Jun 10 04:53 Calm 10 Cloudy OVC110 53 42     66%     29.75 29.75      
Jun 09 01:53 Calm 10 Cloudy OVC050 53 47     80%     29.69 29.69      
Jun 08 17:53 SW 8 10 Cloudy FEW041 OVC055 55 47     74%     29.66 29.66      
Jun 08 10:53 5 10 Mostly Cloudy BKN017 55 46     72%     29.68 29.68      
Jun 08 07:53 ENE 6 10 Cloudy SCT007 OVC110 51 45     79%     29.7 29.7 0